Tracking 19192 objects as of 21-Jun-2018
HD Live streaming from Space Station
objects crossing your sky now

FENGYUN 1C DEB

Track FENGYUN 1C DEB now!
10-day predictions


NORAD ID: 32223
Int'l Code: 1999-025CVV
Perigee: 828.8 km
Apogee: 915.3 km
Inclination: 99.0 °
Period: 102.2 minutes
Semi major axis: 7243 km
RCS: 0.0134 m2 (small)
Launch date: May 10, 1999
Source: People's Republic of China (PRC)
Launch site: Taiyaun Space Center, China (TSC)

Note: This is SATELLITE DEBRIS
aabbcc
Your satellite tracking list
Your tracking list is empty




NASA's NSSDC Master Catalog

Two Line Element Set (TLE):
1 32223U 99025CVV 18171.35577726 +.00000281 +00000-0 +18690-3 0  9995
2 32223 099.0084 228.8795 0059690 118.6556 303.9701 14.08377751256689
Source of the keplerian elements: AFSPC